This is the latest recevied weather packets stored in our database for station/object NF3Q. If no packets are shown the sender has not sent any weather packets the latest 10 day(s).
| Time | Temp. | Humidity | Pressure | Rain* | Wind** | Luminosity | Snow |
|---|---|---|---|---|---|---|---|
| 1777212610 | 11.11° C | 77% | 1019.9 hPa | 0 mm | - | - | - |
| 1777212015 | 10.56° C | 79% | 1019.8 hPa | 0 mm | - | - | - |
| 1777211704 | 10.56° C | 79% | 1019.9 hPa | 0 mm | - | - | - |
| 1777210214 | 10° C | 80% | 1019.8 hPa | 0 mm | - | - | - |
| 1777209905 | 10° C | 82% | 1019.8 hPa | 0 mm | - | - | - |
| 1777209007 | 10° C | 83% | 1019.6 hPa | 0 mm | - | - | - |
| 1777208715 | 9.44° C | 83% | 1019.6 hPa | 0 mm | - | - | - |
| 1777207508 | 9.44° C | 86% | 1019.4 hPa | 0 mm | - | - | - |
| 1777204841 | 8.33° C | 88% | 1018.8 hPa | 0 mm | - | - | - |
| 1777202115 | 7.78° C | 88% | 1018 hPa | 0 mm | - | - | - |
| 1777200905 | 7.78° C | 88% | 1017.9 hPa | 0 mm | - | - | - |
| 1777200319 | 7.78° C | 88% | 1017.6 hPa | 0 mm | - | - | - |
| 1777199708 | 7.78° C | 88% | 1017.5 hPa | 0 mm | - | - | - |
| 1777195824 | 7.78° C | 86% | 1016.7 hPa | 0 mm | - | - | - |
| 1777195508 | 7.78° C | 86% | 1016.5 hPa | 0 mm | - | - | - |
| 1777194911 | 7.78° C | 86% | 1016.4 hPa | 0 mm | - | - | - |
| 1777190704 | 7.78° C | 84% | 1015.9 hPa | 0 mm | - | - | - |
| 1777189807 | 7.78° C | 84% | 1015.7 hPa | 0 mm | - | - | - |
| 1777188307 | 7.78° C | 83% | 1015.3 hPa | 0 mm | - | - | - |
| 1777188007 | 7.78° C | 83% | 1015.5 hPa | 0 mm | - | - | - |
| 1777184123 | 7.78° C | 85% | 1015.8 hPa | 0 mm | - | - | - |
| 1777182317 | 7.78° C | 85% | 1015.8 hPa | 0 mm | - | - | - |
| 1777179005 | 7.78° C | 85% | 1015.6 hPa | 0 mm | - | - | - |
| 1777177203 | 8.89° C | 83% | 1015.5 hPa | 0 mm | - | - | - |
| 1777176604 | 8.89° C | 83% | 1015.5 hPa | 0 mm | - | - | - |
* Rain latest hour (hover to see other rain measurements)
** Current wind speed in m/s (hover to see current wind gust speed)